Weather History for Xiamen, FJ

Change the Weather History Date:

Tuesday, February 5, 2013

  Actual Average Record
Temperature  
Mean Temperature 64 °F -  
Max Temperature 68 °F 62 °F 73 °F (2009)
Min Temperature 59 °F 50 °F 44 °F (2004)
Degree Days  
Heating Degree Days 2    
Growing Degree Days 14 (Base 50)    
Moisture  
Dew Point 62 °F    
Average Humidity 98    
Maximum Humidity 100    
Minimum Humidity 94    
Precipitation  
Precipitation 0.39 in - - ()
Sea Level Pressure  
Sea Level Pressure 30.09 in    
Wind  
Wind Speed 5 mph ()    
Max Wind Speed 11 mph    
Max Gust Speed 18 mph    
Visibility 2.4 miles    
Events Fog , Rain    
Averages and records for this station are not official NWS values.
T = Trace of Precipitation, MM = Missing Value Source: Averaged Metar Reports

Daily Weather History Graph

Daily Weather History Graph

Search for Another Location

Airport:

Trip Planner

Search our weather history database for the weather conditions in past years. The results will help you decide how hot, cold, wet, or windy it might be!

Date:

Astronomy

Feb. 05, 2013 Rise Set
Actual Time 6:47 AM CST 5:55 PM CST
Civil Twilight 6:23 AM CST 6:19 PM CST
Nautical Twilight 5:56 AM CST 6:46 PM CST
Astronomical Twilight 5:29 AM CST 7:13 PM CST
Moon 1:42 AM CST (2/5) 12:51 PM CST (2/5)
Length of Visible Light 11h 55m
Length of Day
11h 07m
Waning Crescent, 32% of the Moon is Illuminated
Feb 5
Waning Crescent
Feb 10
New
Feb 18
First Quarter
Feb 26
Full
Mar 5
Last Quarter

Hourly Weather History & Observations

Time (CST) Temp. Dew Point Humidity Pressure Visibility Wind Dir Wind Speed Gust Speed Precip Events Conditions
12:00 AM 68.0 °F 66.2 °F 94% 30.09 in 1.6 mi Variable 2.2 mph - N/A   Mostly Cloudy
1:00 AM 60.8 °F 60.8 °F 100% 30.09 in 2.5 mi SE 11.2 mph - N/A Rain Light Rain
2:00 AM 60 °F 59 °F 94% 30.13 in 4 mi ESE 8.9 mph - - Rain Light Rain
2:00 AM 60.8 °F 60.8 °F 100% 30.09 in 2.2 mi ESE 8.9 mph - N/A   Mostly Cloudy
3:00 AM 60.8 °F 60.8 °F 100% 30.09 in 3.1 mi ESE 11.2 mph - N/A   Overcast
4:00 AM 60.8 °F 60.8 °F 100% 30.12 in 2.5 mi ESE 8.9 mph - N/A Rain Light Rain
5:00 AM 59 °F 59 °F 98% 30.12 in 3 mi ESE 8.9 mph - - Rain Light Rain
5:00 AM 60.8 °F 60.8 °F 100% 30.09 in 2.8 mi East 8.9 mph - N/A   Light Drizzle
6:00 AM 60.8 °F 60.8 °F 100% 30.09 in 2.8 mi ESE 6.7 mph - N/A   Overcast
7:00 AM 60.8 °F 59.0 °F 94% 30.12 in 2.8 mi ESE 8.9 mph - N/A Rain Light Rain
8:00 AM 59 °F 59 °F 99% 30.17 in 4 mi NE 2.2 mph - - Rain Light Rain
8:00 AM 60.8 °F 60.8 °F 100% 30.15 in 3.7 mi ENE 6.7 mph - N/A Rain Light Rain
9:00 AM 60.8 °F 60.8 °F 100% 30.15 in 3.7 mi Variable 2.2 mph - N/A   Overcast
10:00 AM 60.8 °F 60.8 °F 100% 30.15 in 1.2 mi SE 4.5 mph - N/A Rain Heavy Rain Showers
11:00 AM 60 °F 60 °F 99% 30.17 in 0 mi ESE 2.2 mph - - Rain Light Rain
11:00 AM 60.8 °F 60.8 °F 100% 30.12 in 1.9 mi ESE 6.7 mph 17.9 mph N/A Rain Light Rain Showers
12:00 PM 62.6 °F 60.8 °F 94% 30.09 in 3.1 mi SE 4.5 mph - N/A Rain Light Rain
1:00 PM 62.6 °F 62.6 °F 100% 30.06 in 3.1 mi Calm Calm - N/A Rain Light Rain
2:00 PM 62 °F 62 °F 100% 30.08 in 1 mi North 2.2 mph - - Rain Light Rain
2:00 PM 64.4 °F 62.6 °F 94% 30.04 in 3.7 mi Variable 2.2 mph - N/A Rain Light Rain
3:00 PM 64.4 °F 62.6 °F 94% 30.04 in 3.7 mi Variable 2.2 mph - N/A Rain Light Rain
4:00 PM 64.4 °F 62.6 °F 94% 30.04 in 4.3 mi WNW 4.5 mph - N/A   Mostly Cloudy
5:00 PM 62 °F 62 °F 100% 30.06 in 2 mi SSW 4.5 mph - - Rain Light Rain
5:00 PM 64.4 °F 62.6 °F 94% 30.04 in 4.3 mi SSW 4.5 mph - N/A   Mostly Cloudy
6:00 PM 64.4 °F 62.6 °F 94% 30.04 in 2.5 mi WSW 6.7 mph - N/A   Mostly Cloudy
7:00 PM 64.4 °F 62.6 °F 94% 30.04 in 1.9 mi WSW 4.5 mph - N/A   Scattered Clouds
8:00 PM 62 °F 62 °F 99% 30.09 in 2 mi NNW 4.5 mph - -   Mist
8:00 PM 64.4 °F 62.6 °F 94% 30.06 in 1.7 mi Variable 2.2 mph - N/A   Mostly Cloudy
9:00 PM 62.6 °F 62.6 °F 100% 30.06 in 1.7 mi WSW 4.5 mph - N/A   Mostly Cloudy
10:00 PM 62.6 °F 62.6 °F 100% 30.06 in 0.9 mi SW 6.7 mph - N/A   Mostly Cloudy
11:00 PM 62 °F 62 °F 100% 30.10 in 0 mi WSW 6.7 mph - - Fog Heavy Fog
11:00 PM 64.4 °F 64.4 °F 100% 30.06 in 0.2 mi Variable 2.2 mph - N/A Fog Fog